Regional Weather Roundup
Issued by NWS

Home | Current Version | Previous Version | Text Only | Print | Product List | Glossary Off
Versions: 1 2 3 4 5 6 7 8 9 10 11 12 13 14 15 16 17 18 19 20 21 22 23 24 25 26 27 28 29 30 31 32 33 34 35 36 37 38 39 40 41 42 43 44 45 46 47 48 49 50

000
ASUS43 KMKX 230700
RWRWI

WISCONSIN REGIONAL WEATHER ROUNDUP
NATIONAL WEATHER SERVICE MILWAUKEE/SULLIVAN WI
200 AM CDT MON OCT 23 2017

NOTE: "FAIR" INDICATES FEW OR NO CLOUDS BELOW 12,000 FEET WITH NO
SIGNIFICANT WEATHER AND/OR OBSTRUCTIONS TO VISIBILITY.

WIZ001-002-006>008-014>016-023>028-230800-
NORTHWEST WISCONSIN

CITY           SKY/WX    TMP DP  RH WIND       PRES   REMARKS
SUPERIOR ARPT  CLOUDY    56  32  41 SW10      29.80F
ASHLAND        CLOUDY    52  38  58 S13G22    29.85F
HAYWARD        CLOUDY    52  37  56 S13       29.85F
SIREN          CLOUDY    55  31  40 S10G16    29.83F
CUMBERLAND     CLOUDY    46  36  66 S5        29.88F
RICE LAKE      LGT RAIN  47  40  77 E8        29.91F
CHETEK         MOCLDY    47  41  79 SE5       29.90F
LADYSMITH      CLOUDY    46  41  84 S5        29.93S
EAU CLAIRE     NOT AVBL
MENOMONIE      CLOUDY    49  41  73 S5        29.91F
NEW RICHMOND   NOT AVBL
OSCEOLA        CLOUDY    53  34  49 SE8       29.87F
$$

WIZ003>005-009-010-017-018-230800-
NORTH CENTRAL WISCONSIN

CITY           SKY/WX    TMP DP  RH WIND       PRES   REMARKS
MANITOWISH WTR MOCLDY    40  40 100 S6        29.91F
ARBOR VITAE    CLEAR     42  40  95 S6        29.92F
WOODRUFF       CLEAR     42  40  95 S6        29.92F
RHINELANDER    CLEAR     41  40  96 SW7       29.94F
EAGLE RIVER    NOT AVBL
LAND O LAKES   CLEAR     38  38 100 CALM      29.95F
PHILLIPS       PTCLDY    42  40  93 S5        29.91F
TOMAHAWK       CLEAR     36  35  96 CALM      29.95F FOG
MEDFORD        CLEAR     38  38  97 S6        29.94S WCI  34
MERRILL        FOG       30  30 100 NE3       29.96F VSB 1/2
$$

WIZ029-030-035-036-043>047-230800-
CENTRAL WISCONSIN

CITY           SKY/WX    TMP DP  RH WIND       PRES   REMARKS
WAUSAU         FOG       39  39 100 S5        29.95F VSB 3/4
MOSINEE        SNOW      37  37 100 S3        29.97F VSB 1/2
MARSHFIELD     CLEAR     38  36  92 S5        29.94F WCI  34
STEVENS POINT  FOG       40  40 100 CALM      29.98F VSB 1/2
WAUPACA        FOG       44  44  97 CALM      29.99S VSB 1/4
WAUTOMA        FOG      N/A N/A N/A CALM      29.99F VSB 1/4
WISC RAPIDS    FOG       37  37 100 SE3       29.98F VSB 1/2
CAMP DOUGLAS   NOT AVBL
$$

WIZ011>013-019>022-031-037>040-048>050-230800-
NORTHEAST WISCONSIN

CITY           SKY/WX    TMP DP  RH WIND       PRES   REMARKS
ANTIGO         FOG       34  34 100 S3        29.97F VSB 1/2
SHAWANO        FOG       45  43  95 CALM      29.98S VSB 1/4
OCONTO         CLOUDY    39  39 100 W3        29.98S VSB 1/2
STURGEON BAY   CLOUDY    47  46  97 S3        29.98F
GREEN BAY      FOG       45  45 100 CALM      29.98S VSB 1/2
MANITOWOC      CLOUDY    49  48  97 CALM      29.99F
APPLETON       CLOUDY    45  45 100 W7        29.97S
CLINTONVILLE   NOT AVBL
OSHKOSH        CLOUDY    45  44  97 SW3       29.98F
$$

WIZ032>034-041-042-053>061-230800-
SOUTHWEST WISCONSIN

CITY           SKY/WX    TMP DP  RH WIND       PRES   REMARKS
LA CROSSE      CLEAR     48  44  86 SE10      29.96F
SPARTA         CLEAR     32  32 100 CALM      29.98S
VIROQUA        CLEAR     43  41  94 S5        29.98S
BOSCOBEL       FOG       42  41  96 CALM      30.00F VSB 1/4
PRAIRIE DU CHI CLOUDY    42  40  95 SE3       29.99F
PLATTEVILLE      N/A     45  45 100 CALM      30.01F VSB 3/4
$$

WIZ056-057-062-063-064-067-068-230800-
SOUTH CENTRAL WISCONSIN

CITY           SKY/WX    TMP DP  RH WIND       PRES   REMARKS
REEDSBURG      MOCLDY    38  38 100 CALM      29.99S
BARABOO/DELLS  FOG       39  39  98 CALM      29.99F VSB 3/4
LONE ROCK      NOT AVBL
MINERAL POINT  FOG       45  45 100 CALM      30.00F VSB 3/4
MADISON        CLOUDY    44  44 100 CALM      29.99F FOG
MIDDLETON        N/A     44  44 100 CALM      30.00F VSB 1
WATERTOWN      CLOUDY    47  47 100 CALM      29.99S
MONROE         CLOUDY    46  45  93 W8        29.99F
JANESVILLE     CLOUDY    50  50 100 CALM      29.98F
$$

WIZ051-052-058>065-066-070>072-230800-
SOUTHEAST WISCONSIN

CITY           SKY/WX    TMP DP  RH WIND       PRES   REMARKS
MILWAUKEE      LGT RAIN  52  50  93 NW5       30.00S
WAUKESHA       DRIZZLE   46  46 100 CALM      30.00F
MILWAUKEE/TIMM DRIZZLE   48  45  87 CALM      30.01S
RACINE         LGT RAIN  51  51 100 NW5       30.01S
BURLINGTON     DRIZZLE   48  48 100 CALM      30.00S
KENOSHA        LGT RAIN  51  49  92 NW7       29.99F
FOND DU LAC    CLOUDY    47  44  90 SW3       29.99S
SHEBOYGAN      CLOUDY    49  49 100 CALM      29.98F
WEST BEND      CLOUDY    46  46 100 CALM      29.99F
JUNEAU         FOG       46  46  99 CALM      30.00F VSB 1/2
$$

LSZ147-162-230800-
LAKE SUPERIOR

STATION/POSITION TIME  TEMP    WIND        PRES    WAVE
                       AIR SEA DIR/SP/G            HT/PER
                 (UTC) (F)     (DEG/KT/KT) (MB)    (FT/S)
W MID LAKE BUOY  0550   53 52              1010.9F   3/ 5
DEVILS ISLAND    0600   54     180/ 11/ 16 1010.8F
PORT WING        0600          170/ 10/ 18 1009.8
SAXON HARBOR     0640   52     180/  4/  8 1011.2F
$$

LMZ867-665-643>646-230800-
LAKE MICHIGAN

STATION/POSITION TIME  TEMP    WIND        PRES    WAVE
                       AIR SEA DIR/SP/G            HT/PER
                 (UTC) (F)     (DEG/KT/KT) (MB)    (FT/S)
S GREEN BAY BUOY 0630   52 58  250/ 10/ 14 1014.7F
N MID LAKE BUOY  0550   53 57  260/ 10/ 12 1015.9F   2/ 6
NORTHPORT PIER   0640   47        CALM     1014.9F
KEWAUNEE LAKESHO 0630   49     180/  2/  3 1014.5F
SHEBOYGAN LAKESH 0600   51     280/  4/  5 1016.0F
PORT WASHINGTON  0640   51     290/  3/  5 1016.6F
MILWAUKEE LAKESH 0620   51     310/  6/  8   N/A
S MID LAKE BUOY  0550   54 60  360/ 14/ 16 1015.1F   3/ 5
KENOSHA   LAKESH 0600   51     320/  6/  8 1015.6
$$

TC  - TEMPERATURE IN CELSIUS
VSB - VISIBILITY IN STATUTE MILES
WCI - WIND CHILL INDEX
HX  - HEAT INDEX




USA.gov is the U.S. government's official web portal to all federal, state and local government web resources and services.